This is the latest recevied weather packets stored in our database for station/object OE3BCB-14. If no packets are shown the sender has not sent any weather packets the latest 10 day(s).
| Time | Temp. | Humidity | Pressure | Rain* | Wind** | Luminosity | Snow |
|---|---|---|---|---|---|---|---|
| 1777993315 | 33.89° C | 16% | 1005.6 hPa | - | - | 62 W/m² | - |
| 1777993013 | 35.56° C | 15% | 1005.6 hPa | - | - | 77 W/m² | - |
| 1777992710 | 37.78° C | 15% | 1005.6 hPa | - | - | 110 W/m² | - |
| 1777992408 | 37.78° C | 15% | 1005.6 hPa | - | - | 120 W/m² | - |
| 1777992106 | 37.78° C | 16% | 1005.5 hPa | - | - | 104 W/m² | - |
| 1777991803 | 38.33° C | 15% | 1005.5 hPa | - | - | 101 W/m² | - |
| 1777991501 | 37.22° C | 17% | 1005.5 hPa | - | - | 142 W/m² | - |
| 1777991198 | 35.56° C | 16% | 1005.6 hPa | - | - | 98 W/m² | - |
| 1777990896 | 35.56° C | 16% | 1005.6 hPa | - | - | 83 W/m² | - |
| 1777989989 | 38.33° C | 15% | 1005.8 hPa | - | - | 94 W/m² | - |
| 1777989686 | 40.56° C | 15% | 1005.9 hPa | - | - | 213 W/m² | - |
| 1777989384 | 40° C | 15% | 1005.8 hPa | - | - | 115 W/m² | - |
| 1777989081 | 42.78° C | 15% | 1006 hPa | - | - | 100 W/m² | - |
| 1777988779 | 41.11° C | 17% | 1006 hPa | - | - | 103 W/m² | - |
| 1777988477 | 37.22° C | 16% | 1006 hPa | - | - | 74 W/m² | - |
| 1777988174 | 37.78° C | 17% | 1006 hPa | - | - | 85 W/m² | - |
| 1777987872 | 38.33° C | 18% | 1006.2 hPa | - | - | 126 W/m² | - |
| 1777987569 | 36.67° C | 17% | 1006.2 hPa | - | - | 98 W/m² | - |
| 1777987267 | 37.22° C | 17% | 1006.3 hPa | - | - | 113 W/m² | - |
| 1777986964 | 40.56° C | 16% | 1006.4 hPa | - | - | 81 W/m² | - |
| 1777986662 | 42.22° C | 16% | 1006.6 hPa | - | - | 97 W/m² | - |
| 1777986360 | 41.67° C | 17% | 1006.7 hPa | - | - | 96 W/m² | - |
| 1777986057 | 40.56° C | 17% | 1006.7 hPa | - | - | 75 W/m² | - |
| 1777985755 | 42.22° C | 17% | 1006.8 hPa | - | - | 84 W/m² | - |
| 1777985452 | 42.22° C | 18% | 1006.8 hPa | - | - | 79 W/m² | - |
* Rain since midnight (hover to see other rain measurements)
** Current wind speed in m/s (hover to see current wind gust speed)